ARG739 SAVC-SAVE

Flight info

Callsign ARG739
Flight time 0h 45m
Altitude 32000
Route EGEGU2C EGEGU DCT IROLA DCT ASUTO DCT TEPUB DCT GIMBI DCT
Aircraft B738/M-SDE2E3FGHIRWXY/LB1

Departure

Time 2026-04-15 14:17
Airport General Enrique Mosconi International Airport (SAVC)

Arrival

Time 2026-04-15 15:02
Airport Esquel Brigadier Antonio Parodi International Airport (SAVE)
Time Latitude Longitude Altitude Speed Heading
2026-04-15 14:02 -45.78949 -67.46803 197 ft 0 kts 206°
2026-04-15 14:10 -45.78938 -67.46795 195 ft 2 kts 206°
2026-04-15 14:10 -45.78925 -67.46783 195 ft 2 kts 230°
2026-04-15 14:10 -45.78918 -67.46765 195 ft 2 kts 251°
2026-04-15 14:11 -45.78916 -67.46753 195 ft 1 kts 265°
2026-04-15 14:11 -45.78915 -67.46745 195 ft 0 kts 265°
2026-04-15 14:13 -45.78916 -67.46755 195 ft 4 kts 265°
2026-04-15 14:13 -45.78916 -67.46843 195 ft 13 kts 279°
2026-04-15 14:13 -45.78910 -67.46987 195 ft 16 kts 266°
2026-04-15 14:14 -45.78915 -67.47153 195 ft 13 kts 277°
2026-04-15 14:14 -45.78842 -67.47228 195 ft 14 kts 331°
2026-04-15 14:14 -45.78831 -67.47367 195 ft 17 kts 259°
2026-04-15 14:14 -45.78853 -67.47548 195 ft 20 kts 259°
2026-04-15 14:15 -45.78880 -67.47760 195 ft 23 kts 260°
2026-04-15 14:15 -45.78912 -67.48002 195 ft 26 kts 258°
2026-04-15 14:15 -45.78914 -67.48179 195 ft 16 kts 307°
2026-04-15 14:15 -45.78841 -67.48225 195 ft 10 kts 348°
2026-04-15 14:16 -45.78766 -67.48245 195 ft 6 kts 351°
2026-04-15 14:16 -45.78742 -67.48211 195 ft 7 kts 78°
2026-04-15 14:16 -45.78733 -67.48128 195 ft 8 kts 79°
2026-04-15 14:16 -45.78688 -67.47791 195 ft 64 kts 79°
2026-04-15 14:17 -45.78570 -67.46903 195 ft 120 kts 79°
2026-04-15 14:17 -45.78382 -67.45490 219 ft 165 kts 77°
2026-04-15 14:17 -45.78181 -67.43911 856 ft 164 kts 76°
2026-04-15 14:17 -45.77966 -67.42274 1393 ft 173 kts 73°
2026-04-15 14:18 -45.77723 -67.40566 1895 ft 184 kts 73°
2026-04-15 14:18 -45.77480 -67.38700 2353 ft 199 kts 72°
2026-04-15 14:18 -45.77186 -67.36671 2744 ft 217 kts 66°
2026-04-15 14:18 -45.76356 -67.34906 3119 ft 222 kts 27°
2026-04-15 14:19 -45.74965 -67.34011 3709 ft 225 kts 12°
2026-04-15 14:19 -45.73393 -67.33653 4147 ft 236 kts 352°
2026-04-15 14:19 -45.71740 -67.33997 4676 ft 249 kts 347°
2026-04-15 14:19 -45.70037 -67.34383 5470 ft 252 kts 348°
2026-04-15 14:20 -45.68250 -67.34747 5864 ft 264 kts 348°
2026-04-15 14:20 -45.66421 -67.35103 6694 ft 266 kts 349°
2026-04-15 14:20 -45.64619 -67.35449 7532 ft 268 kts 349°
2026-04-15 14:20 -45.62789 -67.35806 8387 ft 270 kts 349°
2026-04-15 14:21 -45.60928 -67.36170 9177 ft 274 kts 349°
2026-04-15 14:21 -45.59043 -67.36537 9939 ft 280 kts 349°
2026-04-15 14:21 -45.57099 -67.36914 10578 ft 291 kts 349°
2026-04-15 14:21 -45.55032 -67.37317 11084 ft 307 kts 349°
2026-04-15 14:22 -45.52872 -67.37738 11552 ft 324 kts 349°
2026-04-15 14:22 -45.50603 -67.38182 12036 ft 339 kts 348°
2026-04-15 14:22 -45.48278 -67.38997 12455 ft 353 kts 337°
2026-04-15 14:22 -45.46133 -67.40759 12834 ft 366 kts 319°
2026-04-15 14:23 -45.44277 -67.43286 13314 ft 378 kts 313°
2026-04-15 14:23 -45.42433 -67.45956 14055 ft 382 kts 313°
2026-04-15 14:23 -45.40551 -67.48667 14783 ft 388 kts 313°
2026-04-15 14:23 -45.38649 -67.51381 15604 ft 392 kts 313°
2026-04-15 14:24 -45.36726 -67.54111 16391 ft 395 kts 313°
2026-04-15 14:24 -45.34788 -67.56863 17164 ft 399 kts 313°
2026-04-15 14:24 -45.32831 -67.59644 17889 ft 404 kts 313°
2026-04-15 14:24 -45.30850 -67.62455 18659 ft 407 kts 313°
2026-04-15 14:25 -45.28859 -67.65278 19427 ft 409 kts 314°
2026-04-15 14:25 -45.26830 -67.68147 20162 ft 413 kts 314°
2026-04-15 14:25 -45.24794 -67.71025 20828 ft 418 kts 314°
2026-04-15 14:25 -45.22739 -67.73926 21539 ft 421 kts 314°
2026-04-15 14:26 -45.20663 -67.76856 22175 ft 426 kts 314°
2026-04-15 14:26 -45.18569 -67.79807 22829 ft 429 kts 314°
2026-04-15 14:26 -45.16458 -67.82778 23512 ft 432 kts 314°
2026-04-15 14:26 -45.14331 -67.85767 24106 ft 436 kts 314°
2026-04-15 14:27 -45.12164 -67.88801 24729 ft 439 kts 314°
2026-04-15 14:27 -45.09987 -67.91826 25321 ft 443 kts 314°
2026-04-15 14:27 -45.07790 -67.94863 25913 ft 446 kts 314°
2026-04-15 14:27 -45.05580 -67.97917 26496 ft 449 kts 314°
2026-04-15 14:28 -45.03360 -68.00978 27228 ft 447 kts 314°
2026-04-15 14:28 -45.01135 -68.03944 28170 ft 441 kts 315°
2026-04-15 14:28 -44.98790 -68.06666 28994 ft 438 kts 321°
2026-04-15 14:28 -44.96280 -68.09088 29755 ft 436 kts 324°
2026-04-15 14:29 -44.93740 -68.11331 30513 ft 433 kts 324°
2026-04-15 14:29 -44.91193 -68.13543 31080 ft 433 kts 324°
2026-04-15 14:29 -44.88656 -68.15747 31733 ft 430 kts 324°
2026-04-15 14:29 -44.86114 -68.17957 31968 ft 434 kts 324°
2026-04-15 14:30 -44.83545 -68.20192 31988 ft 437 kts 324°
2026-04-15 14:30 -44.78420 -68.24632 31995 ft 430 kts 324°
2026-04-15 14:31 -44.73363 -68.29009 31991 ft 428 kts 324°
2026-04-15 14:31 -44.68296 -68.33389 31988 ft 431 kts 324°
2026-04-15 14:32 -44.63221 -68.37762 31997 ft 429 kts 324°
2026-04-15 14:32 -44.58141 -68.42134 31989 ft 429 kts 324°
2026-04-15 14:33 -44.53061 -68.46496 31984 ft 431 kts 324°
2026-04-15 14:33 -44.47984 -68.50844 31985 ft 429 kts 325°
2026-04-15 14:34 -44.42888 -68.55202 31993 ft 431 kts 325°
2026-04-15 14:34 -44.37796 -68.59543 31996 ft 430 kts 325°
2026-04-15 14:35 -44.32717 -68.63869 32007 ft 430 kts 324°
2026-04-15 14:35 -44.27637 -68.68185 32006 ft 429 kts 325°
2026-04-15 14:36 -44.22554 -68.72495 32016 ft 430 kts 325°
2026-04-15 14:36 -44.17447 -68.76815 32017 ft 430 kts 326°
2026-04-15 14:37 -44.12349 -68.81119 32018 ft 431 kts 326°
2026-04-15 14:37 -44.07248 -68.85418 32018 ft 430 kts 326°
2026-04-15 14:38 -44.02137 -68.89716 32025 ft 431 kts 326°
2026-04-15 14:38 -43.97032 -68.94000 32024 ft 430 kts 326°
2026-04-15 14:39 -43.91938 -68.98264 32032 ft 430 kts 326°
2026-04-15 14:39 -43.86833 -69.02532 32032 ft 431 kts 326°
2026-04-15 14:40 -43.81708 -69.06806 32030 ft 431 kts 326°
2026-04-15 14:40 -43.76593 -69.11062 32032 ft 431 kts 326°
2026-04-15 14:41 -43.71470 -69.15318 32028 ft 431 kts 326°
2026-04-15 14:41 -43.66330 -69.19581 32029 ft 432 kts 326°
2026-04-15 14:42 -43.61205 -69.23821 32028 ft 431 kts 326°
2026-04-15 14:42 -43.56079 -69.28056 32028 ft 432 kts 326°
2026-04-15 14:43 -43.50944 -69.32285 32028 ft 432 kts 326°
2026-04-15 14:43 -43.45793 -69.36521 32023 ft 432 kts 326°
2026-04-15 14:44 -43.40646 -69.40747 32031 ft 433 kts 326°
2026-04-15 14:44 -43.35487 -69.44972 32046 ft 433 kts 326°
2026-04-15 14:45 -43.30309 -69.49203 32066 ft 433 kts 326°
2026-04-15 14:45 -43.25147 -69.53413 32079 ft 434 kts 326°
2026-04-15 14:46 -43.19986 -69.57615 32068 ft 433 kts 326°
2026-04-15 14:46 -43.14826 -69.61807 31981 ft 431 kts 326°
2026-04-15 14:46 -43.12233 -69.63911 31155 ft 434 kts 327°
2026-04-15 14:47 -43.09681 -69.66070 30175 ft 437 kts 324°
2026-04-15 14:47 -43.07261 -69.68537 29019 ft 442 kts 319°
2026-04-15 14:47 -43.05012 -69.71366 27902 ft 446 kts 313°
2026-04-15 14:47 -43.02985 -69.74548 26725 ft 451 kts 307°
2026-04-15 14:48 -43.01193 -69.78038 25509 ft 456 kts 302°
2026-04-15 14:48 -42.99680 -69.81807 24554 ft 454 kts 295°
2026-04-15 14:48 -42.98475 -69.85748 23831 ft 448 kts 290°
2026-04-15 14:48 -42.97592 -69.89774 23017 ft 445 kts 283°
2026-04-15 14:49 -42.97059 -69.93877 22256 ft 441 kts 278°
2026-04-15 14:49 -42.96707 -69.97985 21451 ft 437 kts 276°
2026-04-15 14:49 -42.96419 -70.02064 20662 ft 434 kts 276°
2026-04-15 14:49 -42.96147 -70.06117 19908 ft 430 kts 276°
2026-04-15 14:50 -42.95876 -70.10130 19115 ft 427 kts 276°
2026-04-15 14:50 -42.95600 -70.14149 18355 ft 423 kts 276°
2026-04-15 14:50 -42.95325 -70.18099 17592 ft 420 kts 276°
2026-04-15 14:50 -42.95048 -70.22024 16787 ft 416 kts 277°
2026-04-15 14:51 -42.94774 -70.25876 15651 ft 412 kts 277°
2026-04-15 14:51 -42.94497 -70.29699 14468 ft 408 kts 277°
2026-04-15 14:51 -42.94221 -70.33486 13341 ft 403 kts 278°
2026-04-15 14:51 -42.93948 -70.37213 12454 ft 391 kts 278°
2026-04-15 14:52 -42.93667 -70.40820 11825 ft 373 kts 281°
2026-04-15 14:52 -42.93049 -70.44123 11287 ft 352 kts 293°
2026-04-15 14:52 -42.92094 -70.47074 10864 ft 332 kts 298°
2026-04-15 14:52 -42.91115 -70.49784 10676 ft 309 kts 299°
2026-04-15 14:53 -42.90205 -70.52305 10526 ft 287 kts 299°
2026-04-15 14:53 -42.89351 -70.54704 10410 ft 281 kts 298°
2026-04-15 14:53 -42.88512 -70.57076 10223 ft 276 kts 298°
2026-04-15 14:53 -42.87683 -70.59436 9897 ft 275 kts 298°
2026-04-15 14:54 -42.86865 -70.61770 9505 ft 274 kts 298°
2026-04-15 14:54 -42.86052 -70.64093 9145 ft 272 kts 298°
2026-04-15 14:54 -42.85246 -70.66396 8792 ft 270 kts 299°
2026-04-15 14:54 -42.84449 -70.68675 8390 ft 270 kts 298°
2026-04-15 14:55 -42.83643 -70.70975 7962 ft 270 kts 298°
2026-04-15 14:55 -42.82842 -70.73260 7599 ft 268 kts 298°
2026-04-15 14:55 -42.82041 -70.75544 7244 ft 265 kts 298°
2026-04-15 14:55 -42.81254 -70.77786 6911 ft 262 kts 298°
2026-04-15 14:56 -42.80484 -70.79981 6745 ft 253 kts 298°
2026-04-15 14:56 -42.79749 -70.82075 6672 ft 240 kts 298°
2026-04-15 14:56 -42.79048 -70.84069 6604 ft 229 kts 298°
2026-04-15 14:56 -42.78456 -70.85992 6557 ft 215 kts 287°
2026-04-15 14:57 -42.78440 -70.87949 6477 ft 208 kts 259°
2026-04-15 14:57 -42.79068 -70.89703 6307 ft 204 kts 242°
2026-04-15 14:57 -42.79781 -70.91303 6208 ft 192 kts 242°
2026-04-15 14:57 -42.80457 -70.92797 6010 ft 181 kts 240°
2026-04-15 14:58 -42.81102 -70.94186 5786 ft 172 kts 240°
2026-04-15 14:58 -42.81735 -70.95520 5524 ft 164 kts 240°
2026-04-15 14:58 -42.82345 -70.96793 5318 ft 161 kts 240°
2026-04-15 14:58 -42.82958 -70.98072 5093 ft 164 kts 239°
2026-04-15 14:59 -42.83583 -70.99374 4864 ft 164 kts 239°
2026-04-15 14:59 -42.84201 -71.00659 4667 ft 159 kts 239°
2026-04-15 14:59 -42.84792 -71.01892 4407 ft 157 kts 238°
2026-04-15 14:59 -42.85371 -71.03097 4188 ft 148 kts 238°
2026-04-15 15:00 -42.85913 -71.04230 4039 ft 144 kts 238°
2026-04-15 15:00 -42.86467 -71.05386 3818 ft 147 kts 238°
2026-04-15 15:00 -42.87019 -71.06536 3610 ft 144 kts 237°
2026-04-15 15:00 -42.87564 -71.07672 3425 ft 143 kts 238°
2026-04-15 15:01 -42.88107 -71.08810 3228 ft 144 kts 237°
2026-04-15 15:01 -42.88652 -71.09947 3032 ft 142 kts 237°
2026-04-15 15:01 -42.89187 -71.11066 2839 ft 141 kts 237°
2026-04-15 15:01 -42.89724 -71.12184 2666 ft 142 kts 237°
2026-04-15 15:02 -42.90239 -71.13256 2593 ft 115 kts 237°
2026-04-15 15:02 -42.90564 -71.13943 2606 ft 60 kts 237°
2026-04-15 15:02 -42.90706 -71.14245 2613 ft 18 kts 237°
2026-04-15 15:02 -42.90737 -71.14398 2616 ft 16 kts 262°
2026-04-15 15:03 -42.90748 -71.14538 2619 ft 13 kts 277°
2026-04-15 15:03 -42.90707 -71.14594 2620 ft 3 kts 334°
2026-04-15 15:03 -42.90687 -71.14621 2620 ft 7 kts 308°
2026-04-15 15:03 -42.90652 -71.14649 2621 ft 6 kts
2026-04-15 15:04 -42.90624 -71.14606 2620 ft 6 kts 85°
2026-04-15 15:04 -42.90641 -71.14569 2620 ft 3 kts 153°
2026-04-15 15:04 -42.90651 -71.14570 2620 ft 1 kts 214°
2026-04-15 15:04 -42.90652 -71.14573 2620 ft 0 kts 232°